owner,sensor,date,latitude,longitude,vertical_datum,sea_water_practical_salinity,qcFlag 
LUMCON,ioos:station:LUMCON:101:1,2019-08-01T00:00:00Z,29.2533,-90.6633,1.871,3.99,11111222 
LUMCON,ioos:station:LUMCON:101:1,2019-08-01T00:15:00Z,29.2533,-90.6633,1.86,4.04,11111222 
LUMCON,ioos:station:LUMCON:101:1,2019-08-01T00:30:00Z,29.2533,-90.6633,1.847,4.05,11111222 
LUMCON,ioos:station:LUMCON:101:1,2019-08-01T00:45:00Z,29.2533,-90.6633,1.834,4.09,11111222 
LUMCON,ioos:station:LUMCON:101:1,2019-08-01T01:00:00Z,29.2533,-90.6633,1.825,4.12,11111222 
LUMCON,ioos:station:LUMCON:101:1,2019-08-01T01:15:00Z,29.2533,-90.6633,1.811,4.14,11111222 
LUMCON,ioos:station:LUMCON:101:1,2019-08-01T01:30:00Z,29.2533,-90.6633,1.8,4.17,11111222 
LUMCON,ioos:station:LUMCON:101:1,2019-08-01T01:45:00Z,29.2533,-90.6633,1.789,4.2,11111222 
LUMCON,ioos:station:LUMCON:101:1,2019-08-01T02:00:00Z,29.2533,-90.6633,1.775,4.22,11111222 
LUMCON,ioos:station:LUMCON:101:1,2019-08-01T02:15:00Z,29.2533,-90.6633,1.764,4.25,11111222 
LUMCON,ioos:station:LUMCON:101:1,2019-08-01T02:30:00Z,29.2533,-90.6633,1.75,4.27,11111222 
LUMCON,ioos:station:LUMCON:101:1,2019-08-01T02:45:00Z,29.2533,-90.6633,1.738,4.29,11111222 
LUMCON,ioos:station:LUMCON:101:1,2019-08-01T03:00:00Z,29.2533,-90.6633,1.729,4.31,11111222 
LUMCON,ioos:station:LUMCON:101:1,2019-08-01T03:15:00Z,29.2533,-90.6633,1.722,4.32,11111222 
LUMCON,ioos:station:LUMCON:101:1,2019-08-01T03:30:00Z,29.2533,-90.6633,1.719,4.34,11111222 
LUMCON,ioos:station:LUMCON:101:1,2019-08-01T03:45:00Z,29.2533,-90.6633,1.718,4.37,11111222 
LUMCON,ioos:station:LUMCON:101:1,2019-08-01T04:00:00Z,29.2533,-90.6633,1.714,4.4,11111222 
LUMCON,ioos:station:LUMCON:101:1,2019-08-01T04:15:00Z,29.2533,-90.6633,1.711,4.41,11111222 
LUMCON,ioos:station:LUMCON:101:1,2019-08-01T04:30:00Z,29.2533,-90.6633,1.71,4.41,11111222 
LUMCON,ioos:station:LUMCON:101:1,2019-08-01T04:45:00Z,29.2533,-90.6633,1.713,4.41,11111222 
LUMCON,ioos:station:LUMCON:101:1,2019-08-01T05:00:00Z,29.2533,-90.6633,1.721,4.43,11111222 
LUMCON,ioos:station:LUMCON:101:1,2019-08-01T05:15:00Z,29.2533,-90.6633,1.729,4.43,11111222 
LUMCON,ioos:station:LUMCON:101:1,2019-08-01T05:30:00Z,29.2533,-90.6633,1.739,4.43,11111222 
LUMCON,ioos:station:LUMCON:101:1,2019-08-01T05:45:00Z,29.2533,-90.6633,1.75,4.42,11111222 
LUMCON,ioos:station:LUMCON:101:1,2019-08-01T06:00:00Z,29.2533,-90.6633,1.763,4.41,11111222 
LUMCON,ioos:station:LUMCON:101:1,2019-08-01T06:15:00Z,29.2533,-90.6633,1.769,4.38,11111222 
LUMCON,ioos:station:LUMCON:101:1,2019-08-01T06:30:00Z,29.2533,-90.6633,1.782,4.35,11111222 
LUMCON,ioos:station:LUMCON:101:1,2019-08-01T06:45:00Z,29.2533,-90.6633,1.795,4.32,11111222 
LUMCON,ioos:station:LUMCON:101:1,2019-08-01T07:00:00Z,29.2533,-90.6633,1.807,4.03,11111222 
LUMCON,ioos:station:LUMCON:101:1,2019-08-01T07:15:00Z,29.2533,-90.6633,1.825,3.89,11111222 
LUMCON,ioos:station:LUMCON:101:1,2019-08-01T07:30:00Z,29.2533,-90.6633,1.834,3.57,11111222 
LUMCON,ioos:station:LUMCON:101:1,2019-08-01T07:45:00Z,29.2533,-90.6633,1.848,3.4,11111222 
LUMCON,ioos:station:LUMCON:101:1,2019-08-01T08:00:00Z,29.2533,-90.6633,1.869,3.28,11111222 
LUMCON,ioos:station:LUMCON:101:1,2019-08-01T08:15:00Z,29.2533,-90.6633,1.886,3.18,11111222 
LUMCON,ioos:station:LUMCON:101:1,2019-08-01T08:30:00Z,29.2533,-90.6633,1.903,3.2,11111222 
LUMCON,ioos:station:LUMCON:101:1,2019-08-01T08:45:00Z,29.2533,-90.6633,1.92,3.17,11111222 
LUMCON,ioos:station:LUMCON:101:1,2019-08-01T09:00:00Z,29.2533,-90.6633,1.935,3.14,11111222 
LUMCON,ioos:station:LUMCON:101:1,2019-08-01T09:15:00Z,29.2533,-90.6633,1.946,3.17,11111222 
LUMCON,ioos:station:LUMCON:101:1,2019-08-01T09:30:00Z,29.2533,-90.6633,1.962,3.28,11111222 
LUMCON,ioos:station:LUMCON:101:1,2019-08-01T09:45:00Z,29.2533,-90.6633,1.975,3.24,11111222 
LUMCON,ioos:station:LUMCON:101:1,2019-08-01T10:00:00Z,29.2533,-90.6633,1.986,3.39,11111222 
LUMCON,ioos:station:LUMCON:101:1,2019-08-01T10:15:00Z,29.2533,-90.6633,1.996,3.48,11111222 
LUMCON,ioos:station:LUMCON:101:1,2019-08-01T10:30:00Z,29.2533,-90.6633,2.004,3.46,11111222 
LUMCON,ioos:station:LUMCON:101:1,2019-08-01T10:45:00Z,29.2533,-90.6633,2.012,3.47,11111222 
LUMCON,ioos:station:LUMCON:101:1,2019-08-01T11:00:00Z,29.2533,-90.6633,2.022,3.51,11111222 
LUMCON,ioos:station:LUMCON:101:1,2019-08-01T11:15:00Z,29.2533,-90.6633,2.032,3.56,11111222 
LUMCON,ioos:station:LUMCON:101:1,2019-08-01T11:30:00Z,29.2533,-90.6633,2.04,3.58,11111222 
LUMCON,ioos:station:LUMCON:101:1,2019-08-01T11:45:00Z,29.2533,-90.6633,2.048,3.48,11111222 
LUMCON,ioos:station:LUMCON:101:1,2019-08-01T12:00:00Z,29.2533,-90.6633,2.056,3.49,11111222 
LUMCON,ioos:station:LUMCON:101:1,2019-08-01T12:15:00Z,29.2533,-90.6633,2.064,3.44,11111222 
LUMCON,ioos:station:LUMCON:101:1,2019-08-01T12:30:00Z,29.2533,-90.6633,2.078,3.47,11111222 
LUMCON,ioos:station:LUMCON:101:1,2019-08-01T12:45:00Z,29.2533,-90.6633,2.091,3.55,11111222 
LUMCON,ioos:station:LUMCON:101:1,2019-08-01T13:00:00Z,29.2533,-90.6633,2.103,3.72,11111222 
LUMCON,ioos:station:LUMCON:101:1,2019-08-01T13:15:00Z,29.2533,-90.6633,2.113,3.77,11111222 
LUMCON,ioos:station:LUMCON:101:1,2019-08-01T13:30:00Z,29.2533,-90.6633,2.12,3.88,11111222 
LUMCON,ioos:station:LUMCON:101:1,2019-08-01T13:45:00Z,29.2533,-90.6633,2.129,3.91,11111222 
LUMCON,ioos:station:LUMCON:101:1,2019-08-01T14:00:00Z,29.2533,-90.6633,2.137,3.9,11111222 
LUMCON,ioos:station:LUMCON:101:1,2019-08-01T14:15:00Z,29.2533,-90.6633,2.144,3.97,11111222 
LUMCON,ioos:station:LUMCON:101:1,2019-08-01T14:30:00Z,29.2533,-90.6633,2.152,3.93,11111222 
LUMCON,ioos:station:LUMCON:101:1,2019-08-01T14:45:00Z,29.2533,-90.6633,2.16,4.0,11111222 
LUMCON,ioos:station:LUMCON:101:1,2019-08-01T15:00:00Z,29.2533,-90.6633,2.169,4.04,11111222 
LUMCON,ioos:station:LUMCON:101:1,2019-08-01T15:15:00Z,29.2533,-90.6633,2.18,4.03,11111222 
LUMCON,ioos:station:LUMCON:101:1,2019-08-01T15:30:00Z,29.2533,-90.6633,2.185,4.14,11111222 
LUMCON,ioos:station:LUMCON:101:1,2019-08-01T15:45:00Z,29.2533,-90.6633,2.185,4.24,11111222 
LUMCON,ioos:station:LUMCON:101:1,2019-08-01T16:00:00Z,29.2533,-90.6633,2.187,4.28,11111222 
LUMCON,ioos:station:LUMCON:101:1,2019-08-01T16:15:00Z,29.2533,-90.6633,2.189,4.36,11111222 
LUMCON,ioos:station:LUMCON:101:1,2019-08-01T16:30:00Z,29.2533,-90.6633,2.197,4.38,11111222 
LUMCON,ioos:station:LUMCON:101:1,2019-08-01T16:45:00Z,29.2533,-90.6633,2.205,4.43,11111222 
LUMCON,ioos:station:LUMCON:101:1,2019-08-01T17:00:00Z,29.2533,-90.6633,2.208,4.51,11111222 
LUMCON,ioos:station:LUMCON:101:1,2019-08-01T17:15:00Z,29.2533,-90.6633,2.208,4.53,11111222 
LUMCON,ioos:station:LUMCON:101:1,2019-08-01T17:30:00Z,29.2533,-90.6633,2.206,4.51,11111222 
LUMCON,ioos:station:LUMCON:101:1,2019-08-01T17:45:00Z,29.2533,-90.6633,2.199,4.83,11111222 
LUMCON,ioos:station:LUMCON:101:1,2019-08-01T18:00:00Z,29.2533,-90.6633,2.197,4.86,11111222 
LUMCON,ioos:station:LUMCON:101:1,2019-08-01T18:15:00Z,29.2533,-90.6633,2.196,4.88,11111222 
LUMCON,ioos:station:LUMCON:101:1,2019-08-01T18:30:00Z,29.2533,-90.6633,2.196,4.81,11111222 
LUMCON,ioos:station:LUMCON:101:1,2019-08-01T18:45:00Z,29.2533,-90.6633,2.198,4.72,11111222 
LUMCON,ioos:station:LUMCON:101:1,2019-08-01T19:00:00Z,29.2533,-90.6633,2.189,4.8,11111222 
LUMCON,ioos:station:LUMCON:101:1,2019-08-01T19:15:00Z,29.2533,-90.6633,2.183,4.64,11111222 
LUMCON,ioos:station:LUMCON:101:1,2019-08-01T19:30:00Z,29.2533,-90.6633,2.176,4.68,11111222 
LUMCON,ioos:station:LUMCON:101:1,2019-08-01T19:45:00Z,29.2533,-90.6633,2.163,4.59,11111222 
LUMCON,ioos:station:LUMCON:101:1,2019-08-01T20:00:00Z,29.2533,-90.6633,2.159,4.63,11111222 
LUMCON,ioos:station:LUMCON:101:1,2019-08-01T20:15:00Z,29.2533,-90.6633,2.151,4.43,11111222 
LUMCON,ioos:station:LUMCON:101:1,2019-08-01T20:30:00Z,29.2533,-90.6633,2.137,4.37,11111222 
LUMCON,ioos:station:LUMCON:101:1,2019-08-01T20:45:00Z,29.2533,-90.6633,2.121,4.36,11111222 
LUMCON,ioos:station:LUMCON:101:1,2019-08-01T21:00:00Z,29.2533,-90.6633,2.108,4.3,11111222 
LUMCON,ioos:station:LUMCON:101:1,2019-08-01T21:15:00Z,29.2533,-90.6633,2.097,4.25,11111222 
LUMCON,ioos:station:LUMCON:101:1,2019-08-01T21:30:00Z,29.2533,-90.6633,2.082,4.2,11111222 
LUMCON,ioos:station:LUMCON:101:1,2019-08-01T21:45:00Z,29.2533,-90.6633,2.067,4.15,11111222 
LUMCON,ioos:station:LUMCON:101:1,2019-08-01T22:00:00Z,29.2533,-90.6633,2.056,4.09,11111222 
LUMCON,ioos:station:LUMCON:101:1,2019-08-01T22:15:00Z,29.2533,-90.6633,2.043,4.04,11111222 
LUMCON,ioos:station:LUMCON:101:1,2019-08-01T22:30:00Z,29.2533,-90.6633,2.029,4.0,11111222 
LUMCON,ioos:station:LUMCON:101:1,2019-08-01T22:45:00Z,29.2533,-90.6633,2.012,3.96,11111222 
LUMCON,ioos:station:LUMCON:101:1,2019-08-01T23:00:00Z,29.2533,-90.6633,1.998,3.94,11111222 
LUMCON,ioos:station:LUMCON:101:1,2019-08-01T23:15:00Z,29.2533,-90.6633,1.983,3.91,11111222 
LUMCON,ioos:station:LUMCON:101:1,2019-08-01T23:30:00Z,29.2533,-90.6633,1.966,3.91,11111222 
LUMCON,ioos:station:LUMCON:101:1,2019-08-01T23:45:00Z,29.2533,-90.6633,1.953,3.92,11111222 
LUMCON,ioos:station:LUMCON:101:1,2019-08-02T00:00:00Z,29.2533,-90.6633,1.938,3.92,11111222 
LUMCON,ioos:station:LUMCON:101:1,2019-08-02T00:15:00Z,29.2533,-90.6633,1.927,3.92,11111222 
LUMCON,ioos:station:LUMCON:101:1,2019-08-02T00:30:00Z,29.2533,-90.6633,1.918,3.96,11111222 
LUMCON,ioos:station:LUMCON:101:1,2019-08-02T00:45:00Z,29.2533,-90.6633,1.901,3.96,11111222 
LUMCON,ioos:station:LUMCON:101:1,2019-08-02T01:00:00Z,29.2533,-90.6633,1.889,3.96,11111222 
LUMCON,ioos:station:LUMCON:101:1,2019-08-02T01:15:00Z,29.2533,-90.6633,1.875,3.99,11111222 
LUMCON,ioos:station:LUMCON:101:1,2019-08-02T01:30:00Z,29.2533,-90.6633,1.865,3.99,11111222 
LUMCON,ioos:station:LUMCON:101:1,2019-08-02T01:45:00Z,29.2533,-90.6633,1.854,4.03,11111222 
LUMCON,ioos:station:LUMCON:101:1,2019-08-02T02:00:00Z,29.2533,-90.6633,1.848,4.04,11111222 
LUMCON,ioos:station:LUMCON:101:1,2019-08-02T02:15:00Z,29.2533,-90.6633,1.843,4.06,11111222 
LUMCON,ioos:station:LUMCON:101:1,2019-08-02T02:30:00Z,29.2533,-90.6633,1.835,4.08,11111222 
LUMCON,ioos:station:LUMCON:101:1,2019-08-02T02:45:00Z,29.2533,-90.6633,1.821,4.08,11111222 
LUMCON,ioos:station:LUMCON:101:1,2019-08-02T03:00:00Z,29.2533,-90.6633,1.809,4.13,11111222 
LUMCON,ioos:station:LUMCON:101:1,2019-08-02T03:15:00Z,29.2533,-90.6633,1.797,4.13,11111222 
LUMCON,ioos:station:LUMCON:101:1,2019-08-02T03:30:00Z,29.2533,-90.6633,1.787,4.13,11111222 
LUMCON,ioos:station:LUMCON:101:1,2019-08-02T03:45:00Z,29.2533,-90.6633,1.78,4.15,11111222 
LUMCON,ioos:station:LUMCON:101:1,2019-08-02T04:00:00Z,29.2533,-90.6633,1.777,4.16,11111222 
LUMCON,ioos:station:LUMCON:101:1,2019-08-02T04:15:00Z,29.2533,-90.6633,1.775,4.19,11111222 
LUMCON,ioos:station:LUMCON:101:1,2019-08-02T04:30:00Z,29.2533,-90.6633,1.771,4.2,11111222 
LUMCON,ioos:station:LUMCON:101:1,2019-08-02T04:45:00Z,29.2533,-90.6633,1.772,4.2,11111222 
LUMCON,ioos:station:LUMCON:101:1,2019-08-02T05:00:00Z,29.2533,-90.6633,1.775,4.22,11111222 
LUMCON,ioos:station:LUMCON:101:1,2019-08-02T05:15:00Z,29.2533,-90.6633,1.77,4.22,11111222 
LUMCON,ioos:station:LUMCON:101:1,2019-08-02T05:30:00Z,29.2533,-90.6633,1.77,4.22,11111222 
LUMCON,ioos:station:LUMCON:101:1,2019-08-02T05:45:00Z,29.2533,-90.6633,1.777,4.22,11111222 
LUMCON,ioos:station:LUMCON:101:1,2019-08-02T06:00:00Z,29.2533,-90.6633,1.779,4.22,11111222 
LUMCON,ioos:station:LUMCON:101:1,2019-08-02T06:15:00Z,29.2533,-90.6633,1.792,4.22,11111222 
LUMCON,ioos:station:LUMCON:101:1,2019-08-02T06:30:00Z,29.2533,-90.6633,1.804,4.22,11111222 
LUMCON,ioos:station:LUMCON:101:1,2019-08-02T06:45:00Z,29.2533,-90.6633,1.817,4.18,11111222 
LUMCON,ioos:station:LUMCON:101:1,2019-08-02T07:00:00Z,29.2533,-90.6633,1.823,4.16,11111222 
LUMCON,ioos:station:LUMCON:101:1,2019-08-02T07:15:00Z,29.2533,-90.6633,1.84,4.16,11111222 
LUMCON,ioos:station:LUMCON:101:1,2019-08-02T07:30:00Z,29.2533,-90.6633,1.863,4.15,11111222 
LUMCON,ioos:station:LUMCON:101:1,2019-08-02T07:45:00Z,29.2533,-90.6633,1.874,4.04,11111222 
LUMCON,ioos:station:LUMCON:101:1,2019-08-02T08:00:00Z,29.2533,-90.6633,1.885,3.91,11111222 
LUMCON,ioos:station:LUMCON:101:1,2019-08-02T08:15:00Z,29.2533,-90.6633,1.905,3.82,11111222 
LUMCON,ioos:station:LUMCON:101:1,2019-08-02T08:30:00Z,29.2533,-90.6633,1.918,3.74,11111222 
LUMCON,ioos:station:LUMCON:101:1,2019-08-02T08:45:00Z,29.2533,-90.6633,1.929,3.76,11111222 
LUMCON,ioos:station:LUMCON:101:1,2019-08-02T09:00:00Z,29.2533,-90.6633,1.948,3.74,11111222 
LUMCON,ioos:station:LUMCON:101:1,2019-08-02T09:15:00Z,29.2533,-90.6633,1.96,3.92,11111222 
LUMCON,ioos:station:LUMCON:101:1,2019-08-02T09:30:00Z,29.2533,-90.6633,1.976,3.86,11111222 
LUMCON,ioos:station:LUMCON:101:1,2019-08-02T09:45:00Z,29.2533,-90.6633,1.987,3.88,11111222 
LUMCON,ioos:station:LUMCON:101:1,2019-08-02T10:00:00Z,29.2533,-90.6633,1.997,3.88,11111222 
LUMCON,ioos:station:LUMCON:101:1,2019-08-02T10:15:00Z,29.2533,-90.6633,2.01,3.91,11111222 
LUMCON,ioos:station:LUMCON:101:1,2019-08-02T10:30:00Z,29.2533,-90.6633,2.022,3.82,11111222 
LUMCON,ioos:station:LUMCON:101:1,2019-08-02T10:45:00Z,29.2533,-90.6633,2.033,3.88,11111222 
LUMCON,ioos:station:LUMCON:101:1,2019-08-02T11:00:00Z,29.2533,-90.6633,2.046,3.86,11111222 
LUMCON,ioos:station:LUMCON:101:1,2019-08-02T11:15:00Z,29.2533,-90.6633,2.061,3.9,11111222 
LUMCON,ioos:station:LUMCON:101:1,2019-08-02T11:30:00Z,29.2533,-90.6633,2.086,3.9,11111222 
LUMCON,ioos:station:LUMCON:101:1,2019-08-02T11:45:00Z,29.2533,-90.6633,2.1,4.02,11111222 
LUMCON,ioos:station:LUMCON:101:1,2019-08-02T12:00:00Z,29.2533,-90.6633,2.094,4.0,11111222 
LUMCON,ioos:station:LUMCON:101:1,2019-08-02T12:15:00Z,29.2533,-90.6633,2.107,4.06,11111222 
LUMCON,ioos:station:LUMCON:101:1,2019-08-02T12:30:00Z,29.2533,-90.6633,2.102,4.08,11111222 
LUMCON,ioos:station:LUMCON:101:1,2019-08-02T12:45:00Z,29.2533,-90.6633,2.093,4.13,11111222 
LUMCON,ioos:station:LUMCON:101:1,2019-08-02T13:00:00Z,29.2533,-90.6633,2.099,4.13,11111222 
LUMCON,ioos:station:LUMCON:101:1,2019-08-02T13:15:00Z,29.2533,-90.6633,2.103,4.19,11111222 
LUMCON,ioos:station:LUMCON:101:1,2019-08-02T13:30:00Z,29.2533,-90.6633,2.11,4.25,11111222 
LUMCON,ioos:station:LUMCON:101:1,2019-08-02T13:45:00Z,29.2533,-90.6633,2.125,4.19,11111222 
LUMCON,ioos:station:LUMCON:101:1,2019-08-02T14:00:00Z,29.2533,-90.6633,2.136,4.22,11111222 
LUMCON,ioos:station:LUMCON:101:1,2019-08-02T14:15:00Z,29.2533,-90.6633,2.142,4.22,11111222 
LUMCON,ioos:station:LUMCON:101:1,2019-08-02T14:30:00Z,29.2533,-90.6633,2.153,4.15,11111222 
LUMCON,ioos:station:LUMCON:101:1,2019-08-02T14:45:00Z,29.2533,-90.6633,2.163,4.04,11111222 
LUMCON,ioos:station:LUMCON:101:1,2019-08-02T15:00:00Z,29.2533,-90.6633,2.166,4.0,11111222 
LUMCON,ioos:station:LUMCON:101:1,2019-08-02T15:15:00Z,29.2533,-90.6633,2.171,4.02,11111222 
LUMCON,ioos:station:LUMCON:101:1,2019-08-02T15:30:00Z,29.2533,-90.6633,2.176,4.05,11111222 
LUMCON,ioos:station:LUMCON:101:1,2019-08-02T15:45:00Z,29.2533,-90.6633,2.179,4.08,11111222 
LUMCON,ioos:station:LUMCON:101:1,2019-08-02T16:00:00Z,29.2533,-90.6633,2.185,4.2,11111222 
LUMCON,ioos:station:LUMCON:101:1,2019-08-02T16:15:00Z,29.2533,-90.6633,2.193,4.31,11111222 
LUMCON,ioos:station:LUMCON:101:1,2019-08-02T16:30:00Z,29.2533,-90.6633,2.199,4.37,11111222 
LUMCON,ioos:station:LUMCON:101:1,2019-08-02T16:45:00Z,29.2533,-90.6633,2.202,4.4,11111222 
LUMCON,ioos:station:LUMCON:101:1,2019-08-02T17:00:00Z,29.2533,-90.6633,2.197,4.43,11111222 
LUMCON,ioos:station:LUMCON:101:1,2019-08-02T17:15:00Z,29.2533,-90.6633,2.188,4.46,11111222 
LUMCON,ioos:station:LUMCON:101:1,2019-08-02T17:30:00Z,29.2533,-90.6633,2.179,4.58,11111222 
LUMCON,ioos:station:LUMCON:101:1,2019-08-02T17:45:00Z,29.2533,-90.6633,2.178,4.51,11111222 
LUMCON,ioos:station:LUMCON:101:1,2019-08-02T18:00:00Z,29.2533,-90.6633,2.187,4.41,11111222 
LUMCON,ioos:station:LUMCON:101:1,2019-08-02T18:15:00Z,29.2533,-90.6633,2.197,4.42,11111222 
LUMCON,ioos:station:LUMCON:101:1,2019-08-02T18:30:00Z,29.2533,-90.6633,2.198,4.43,11111222 
LUMCON,ioos:station:LUMCON:101:1,2019-08-02T18:45:00Z,29.2533,-90.6633,2.199,4.49,11111222 
LUMCON,ioos:station:LUMCON:101:1,2019-08-02T19:00:00Z,29.2533,-90.6633,2.196,4.52,11111222 
LUMCON,ioos:station:LUMCON:101:1,2019-08-02T19:15:00Z,29.2533,-90.6633,2.199,4.58,11111222 
LUMCON,ioos:station:LUMCON:101:1,2019-08-02T19:30:00Z,29.2533,-90.6633,2.195,4.64,11111222 
LUMCON,ioos:station:LUMCON:101:1,2019-08-02T19:45:00Z,29.2533,-90.6633,2.187,4.7,11111222 
LUMCON,ioos:station:LUMCON:101:1,2019-08-02T20:00:00Z,29.2533,-90.6633,2.184,4.72,11111222 
LUMCON,ioos:station:LUMCON:101:1,2019-08-02T20:15:00Z,29.2533,-90.6633,2.172,4.55,11111222 
LUMCON,ioos:station:LUMCON:101:1,2019-08-02T20:30:00Z,29.2533,-90.6633,2.166,4.42,11111222 
LUMCON,ioos:station:LUMCON:101:1,2019-08-02T20:45:00Z,29.2533,-90.6633,2.154,4.35,11111222 
LUMCON,ioos:station:LUMCON:101:1,2019-08-02T21:00:00Z,29.2533,-90.6633,2.145,4.35,11111222 
LUMCON,ioos:station:LUMCON:101:1,2019-08-02T21:15:00Z,29.2533,-90.6633,2.129,4.32,11111222 
LUMCON,ioos:station:LUMCON:101:1,2019-08-02T21:30:00Z,29.2533,-90.6633,2.119,4.28,11111222 
LUMCON,ioos:station:LUMCON:101:1,2019-08-02T21:45:00Z,29.2533,-90.6633,2.112,4.24,11111222 
LUMCON,ioos:station:LUMCON:101:1,2019-08-02T22:00:00Z,29.2533,-90.6633,2.103,4.22,11111222 
LUMCON,ioos:station:LUMCON:101:1,2019-08-02T22:15:00Z,29.2533,-90.6633,2.091,4.21,11111222 
LUMCON,ioos:station:LUMCON:101:1,2019-08-02T22:30:00Z,29.2533,-90.6633,2.076,4.18,11111222 
LUMCON,ioos:station:LUMCON:101:1,2019-08-02T22:45:00Z,29.2533,-90.6633,2.062,4.16,11111222 
LUMCON,ioos:station:LUMCON:101:1,2019-08-02T23:00:00Z,29.2533,-90.6633,2.051,4.14,11111222 
LUMCON,ioos:station:LUMCON:101:1,2019-08-02T23:15:00Z,29.2533,-90.6633,2.04,4.13,11111222 
LUMCON,ioos:station:LUMCON:101:1,2019-08-02T23:30:00Z,29.2533,-90.6633,2.028,4.13,11111222 
LUMCON,ioos:station:LUMCON:101:1,2019-08-02T23:45:00Z,29.2533,-90.6633,2.016,4.12,11111222 
LUMCON,ioos:station:LUMCON:101:1,2019-08-03T00:00:00Z,29.2533,-90.6633,1.997,4.11,11111222 
LUMCON,ioos:station:LUMCON:101:1,2019-08-03T00:15:00Z,29.2533,-90.6633,1.984,4.11,11111222 
LUMCON,ioos:station:LUMCON:101:1,2019-08-03T00:30:00Z,29.2533,-90.6633,1.973,4.1,11111222 
LUMCON,ioos:station:LUMCON:101:1,2019-08-03T00:45:00Z,29.2533,-90.6633,1.951,4.1,11111222 
LUMCON,ioos:station:LUMCON:101:1,2019-08-03T01:00:00Z,29.2533,-90.6633,1.938,4.1,11111222 
LUMCON,ioos:station:LUMCON:101:1,2019-08-03T01:15:00Z,29.2533,-90.6633,1.925,4.09,11111222 
LUMCON,ioos:station:LUMCON:101:1,2019-08-03T01:30:00Z,29.2533,-90.6633,1.916,4.1,11111222 
LUMCON,ioos:station:LUMCON:101:1,2019-08-03T01:45:00Z,29.2533,-90.6633,1.905,4.1,11111222 
LUMCON,ioos:station:LUMCON:101:1,2019-08-03T02:00:00Z,29.2533,-90.6633,1.894,4.09,11111222 
LUMCON,ioos:station:LUMCON:101:1,2019-08-03T02:15:00Z,29.2533,-90.6633,1.884,4.11,11111222 
LUMCON,ioos:station:LUMCON:101:1,2019-08-03T02:30:00Z,29.2533,-90.6633,1.869,4.11,11111222 
LUMCON,ioos:station:LUMCON:101:1,2019-08-03T02:45:00Z,29.2533,-90.6633,1.86,4.1,11111222 
LUMCON,ioos:station:LUMCON:101:1,2019-08-03T03:00:00Z,29.2533,-90.6633,1.847,4.11,11111222 
LUMCON,ioos:station:LUMCON:101:1,2019-08-03T03:15:00Z,29.2533,-90.6633,1.838,4.12,11111222 
LUMCON,ioos:station:LUMCON:101:1,2019-08-03T03:30:00Z,29.2533,-90.6633,1.824,4.12,11111222 
LUMCON,ioos:station:LUMCON:101:1,2019-08-03T03:45:00Z,29.2533,-90.6633,1.812,4.14,11111222 
LUMCON,ioos:station:LUMCON:101:1,2019-08-03T04:00:00Z,29.2533,-90.6633,1.806,4.15,11111222 
LUMCON,ioos:station:LUMCON:101:1,2019-08-03T04:15:00Z,29.2533,-90.6633,1.796,4.15,11111222 
LUMCON,ioos:station:LUMCON:101:1,2019-08-03T04:30:00Z,29.2533,-90.6633,1.795,4.15,11111222 
LUMCON,ioos:station:LUMCON:101:1,2019-08-03T04:45:00Z,29.2533,-90.6633,1.795,4.17,11111222 
LUMCON,ioos:station:LUMCON:101:1,2019-08-03T05:00:00Z,29.2533,-90.6633,1.793,4.16,11111222 
LUMCON,ioos:station:LUMCON:101:1,2019-08-03T05:15:00Z,29.2533,-90.6633,1.79,4.18,11111222 
LUMCON,ioos:station:LUMCON:101:1,2019-08-03T05:30:00Z,29.2533,-90.6633,1.785,4.2,11111222 
LUMCON,ioos:station:LUMCON:101:1,2019-08-03T05:45:00Z,29.2533,-90.6633,1.778,4.18,11111222 
LUMCON,ioos:station:LUMCON:101:1,2019-08-03T06:00:00Z,29.2533,-90.6633,1.785,4.17,11111222 
LUMCON,ioos:station:LUMCON:101:1,2019-08-03T06:15:00Z,29.2533,-90.6633,1.794,4.18,11111222 
LUMCON,ioos:station:LUMCON:101:1,2019-08-03T06:30:00Z,29.2533,-90.6633,1.801,4.14,11111222 
LUMCON,ioos:station:LUMCON:101:1,2019-08-03T06:45:00Z,29.2533,-90.6633,1.817,4.12,11111222 
LUMCON,ioos:station:LUMCON:101:1,2019-08-03T07:00:00Z,29.2533,-90.6633,1.833,4.13,11111222 
LUMCON,ioos:station:LUMCON:101:1,2019-08-03T07:15:00Z,29.2533,-90.6633,1.841,4.13,11111222 
LUMCON,ioos:station:LUMCON:101:1,2019-08-03T07:30:00Z,29.2533,-90.6633,1.858,4.12,11111222 
LUMCON,ioos:station:LUMCON:101:1,2019-08-03T07:45:00Z,29.2533,-90.6633,1.867,4.11,11111222 
LUMCON,ioos:station:LUMCON:101:1,2019-08-03T08:00:00Z,29.2533,-90.6633,1.875,3.89,11111222 
LUMCON,ioos:station:LUMCON:101:1,2019-08-03T08:15:00Z,29.2533,-90.6633,1.892,3.72,11111222 
LUMCON,ioos:station:LUMCON:101:1,2019-08-03T08:30:00Z,29.2533,-90.6633,1.897,3.69,11111222 
LUMCON,ioos:station:LUMCON:101:1,2019-08-03T08:45:00Z,29.2533,-90.6633,1.912,3.63,11111222 
LUMCON,ioos:station:LUMCON:101:1,2019-08-03T09:00:00Z,29.2533,-90.6633,1.931,3.57,11111222 
LUMCON,ioos:station:LUMCON:101:1,2019-08-03T09:15:00Z,29.2533,-90.6633,1.943,3.53,11111222 
LUMCON,ioos:station:LUMCON:101:1,2019-08-03T09:30:00Z,29.2533,-90.6633,1.959,3.51,11111222 
LUMCON,ioos:station:LUMCON:101:1,2019-08-03T09:45:00Z,29.2533,-90.6633,1.973,3.55,11111222 
LUMCON,ioos:station:LUMCON:101:1,2019-08-03T10:00:00Z,29.2533,-90.6633,1.983,3.59,11111222 
LUMCON,ioos:station:LUMCON:101:1,2019-08-03T10:15:00Z,29.2533,-90.6633,1.996,3.61,11111222 
LUMCON,ioos:station:LUMCON:101:1,2019-08-03T10:30:00Z,29.2533,-90.6633,2.009,3.68,11111222 
LUMCON,ioos:station:LUMCON:101:1,2019-08-03T10:45:00Z,29.2533,-90.6633,2.023,3.72,11111222 
LUMCON,ioos:station:LUMCON:101:1,2019-08-03T11:00:00Z,29.2533,-90.6633,2.036,3.74,11111222 
LUMCON,ioos:station:LUMCON:101:1,2019-08-03T11:15:00Z,29.2533,-90.6633,2.046,3.79,11111222 
LUMCON,ioos:station:LUMCON:101:1,2019-08-03T11:30:00Z,29.2533,-90.6633,2.055,3.88,11111222 
LUMCON,ioos:station:LUMCON:101:1,2019-08-03T11:45:00Z,29.2533,-90.6633,2.06,3.89,11111222 
LUMCON,ioos:station:LUMCON:101:1,2019-08-03T12:00:00Z,29.2533,-90.6633,2.066,3.97,11111222 
LUMCON,ioos:station:LUMCON:101:1,2019-08-03T12:15:00Z,29.2533,-90.6633,2.072,3.96,11111222 
LUMCON,ioos:station:LUMCON:101:1,2019-08-03T12:30:00Z,29.2533,-90.6633,2.074,3.96,11111222 
LUMCON,ioos:station:LUMCON:101:1,2019-08-03T12:45:00Z,29.2533,-90.6633,2.081,3.98,11111222 
LUMCON,ioos:station:LUMCON:101:1,2019-08-03T13:00:00Z,29.2533,-90.6633,2.093,3.97,11111222 
LUMCON,ioos:station:LUMCON:101:1,2019-08-03T13:15:00Z,29.2533,-90.6633,2.1,3.97,11111222 
LUMCON,ioos:station:LUMCON:101:1,2019-08-03T13:30:00Z,29.2533,-90.6633,2.102,3.98,11111222 
LUMCON,ioos:station:LUMCON:101:1,2019-08-03T13:45:00Z,29.2533,-90.6633,2.104,3.98,11111222 
LUMCON,ioos:station:LUMCON:101:1,2019-08-03T14:00:00Z,29.2533,-90.6633,2.112,3.98,11111222 
LUMCON,ioos:station:LUMCON:101:1,2019-08-03T14:15:00Z,29.2533,-90.6633,2.119,4.05,11111222 
LUMCON,ioos:station:LUMCON:101:1,2019-08-03T14:30:00Z,29.2533,-90.6633,2.126,4.03,11111222 
LUMCON,ioos:station:LUMCON:101:1,2019-08-03T14:45:00Z,29.2533,-90.6633,2.128,4.09,11111222 
LUMCON,ioos:station:LUMCON:101:1,2019-08-03T15:00:00Z,29.2533,-90.6633,2.138,4.11,11111222 
LUMCON,ioos:station:LUMCON:101:1,2019-08-03T15:15:00Z,29.2533,-90.6633,2.145,4.1,11111222 
LUMCON,ioos:station:LUMCON:101:1,2019-08-03T15:30:00Z,29.2533,-90.6633,2.154,4.12,11111222 
LUMCON,ioos:station:LUMCON:101:1,2019-08-03T15:45:00Z,29.2533,-90.6633,2.162,4.2,11111222 
LUMCON,ioos:station:LUMCON:101:1,2019-08-03T16:00:00Z,29.2533,-90.6633,2.168,4.19,11111222 
LUMCON,ioos:station:LUMCON:101:1,2019-08-03T16:15:00Z,29.2533,-90.6633,2.174,4.25,11111222 
LUMCON,ioos:station:LUMCON:101:1,2019-08-03T16:30:00Z,29.2533,-90.6633,2.182,4.29,11111222 
LUMCON,ioos:station:LUMCON:101:1,2019-08-03T16:45:00Z,29.2533,-90.6633,2.185,4.33,11111222 